Regional Weather Roundup
Issued by NWS Charleston, SC

Current Version | Previous Version | Text Only | Print | Product List | Glossary Off
Versions: 1 2 3 4 5 6 7 8 9 10 11 12 13 14 15 16 17 18 19 20 21 22 23 24 25 26 27 28 29 30 31 32 33 34 35 36 37 38 39 40 41 42 43 44 45 46 47 48 49 50
000 ASUS42 KCHS 271012 RWRCHS REGIONAL WEATHER ROUNDUP NATIONAL WEATHER SERVICE CHARLESTON SC 500 AM EST MON FEB 27 2017 NOTE: "FAIR" INDICATES FEW OR NO CLOUDS BELOW 12,000 FEET WITH NO SIGNIFICANT WEATHER AND/OR OBSTRUCTIONS TO VISIBILITY. NOT ALL STATIONS ARE QUALITY CONTROLLED. USE DATA WITH CAUTION... ESPECIALLY DEWPOINT OBSERVATIONS. SCZ027-030-031-034>040-042>050-271100- ...SOUTHEAST SOUTH CAROLINA... CITY SKY/WX TMP DP RH WIND PRES REMARKS N CHARLESTON PTCLDY 40 38 93 N3 30.32R WATERFRONT PRK N/A 59 46 62 E12 30.30S MOUNT PLEASANT LGT RAIN 39 39 100 CALM 30.32S JOHNS ISLAND FAIR 45 41 87 CALM 30.32R PINOPOLIS N/A 46 39 76 VRB2 30.24S MONCKS CORNER FAIR 37 34 87 CALM 30.32S SUMMERVILLE FAIR 36 34 93 CALM 30.32S BEAUFORT MCAS PTCLDY 47 44 90 SE3 30.30R BEAUFORT ARPT FAIR 46 43 87 E5 30.30R HILTON HEAD IS CLEAR 59 43 55 E8 30.30S WALTERBORO SUNNY 37 36 93 E5 30.32R WCI 34 ALLENDALE FAIR 39 37 93 CALM 30.28S ...SOUTHERN MIDLANDS AND PEE DEE... CITY SKY/WX TMP DP RH WIND PRES REMARKS GEORGETOWN FAIR 34 34 100 CALM 30.34S KINGSTREE FAIR 32 30 93 CALM 30.33R ORANGEBURG PTCLDY 38 35 89 E5 30.29F WCI 34 BARNWELL FAIR 41 36 81 CALM 30.28S AIKEN FAIR 34 30 86 CALM 30.31R MANNING FAIR 36 34 93 MISG 30.32R COLUMBIA CLEAR 39 32 76 CALM 30.30R SUMTER CLEAR 35 31 83 CALM 30.29S FLORENCE CLEAR 35 34 96 SE3 30.33R MYRTLE BEACH CLEAR 47 37 68 SE8 30.35S N MYRTLE BEACH CLEAR 37 37 100 NE5 30.35R FOG WCI 33 $$ GAZ063-065-086>088-099>101-113>116-118-119-134>141-150-271100- ...SOUTHEAST GEORGIA... CITY SKY/WX TMP DP RH WIND PRES REMARKS SAVANNAH ARPT CLEAR 48 43 82 E3 30.28F HUNTER AAF CLEAR 46 46 100 CALM 30.25F FORT STEWART CLEAR 42 39 91 CALM 30.25S STATESBORO CLEAR 39 32 75 CALM 30.27S SYLVANIA SUNNY N/A N/A N/A CALM 30.28S CLAXTON FAIR N/A N/A N/A CALM 30.27S ...CSRA...CENTRAL AND FAR SOUTHEAST GEORGIA... CITY SKY/WX TMP DP RH WIND PRES REMARKS THOMSON PTCLDY 38 36 94 CALM 30.29R AUGUSTA-BUSH PTCLDY 36 33 89 CALM 30.26F AUGUSTA-DANIEL CLEAR 45 31 58 E6 30.26F SWAINSBORO FAIR 46 41 81 SE6 30.25F VIDALIA CLEAR 48 45 87 SE5 30.25S EASTMAN FAIR 38 38 99 CALM 30.27S HAZLEHURST FAIR 52 43 72 SE6 30.24R ALMA CLEAR 46 41 82 E5 30.24S WAYCROSS CLEAR 48 46 93 E3 30.24F JESUP FAIR 41 37 87 CALM 30.26S BAXLEY FAIR 46 45 93 CALM 30.25S BRUNSWICK CLEAR 46 45 93 E3 30.27S SAINT SIMONS CLEAR 61 43 51 E10 30.26S $$ SCZ027-028-034-036>038-045-046-048>050-GAZ119-141-271100- ...LAKE AND SUPPLEMENTAL COASTAL OBSERVATIONS... STATION/POSITION TIME TEMP WIND PRES WAVE SWELL AIR SEA DIR/SP/G HT/PER HT/PER/DIR (UTC) (F) (DEG/KT/KT) (MB) (FT/S) (FT/S/D) WINYAH BAY 0845 41 CALM 1027.0 LAKE MURRAY 0920 47 120/ 4/ 5 1025.1R ACE BASIN NERRS NOT AVBL FORT PULASKI 0942 59 62 130/ 6/ 9 1025.5F SAPELO ISLAND 0900 58 100/ 6 1025.0 $$ ANZ835-935-AMZ111-154-330-350-352-354-370-450-454-472-271100- ...C-MAN AND BUOY OBSERVATIONS... STATION/POSITION TIME TEMP WIND PRES WAVE SWELL AIR SEA DIR/SP/G HT/PER HT/PER/DIR (UTC) (F) (DEG/KT/KT) (MB) (FT/S) (FT/S/D) BUOY 41004 0950 62 69 80/ 12/ 16 1026.3R 3/ 9 2/130/ 9 BUOY 41008 0850 63 61 90/ 12/ 14 1024.9 2/ 9 2/100/ 9 FOLLY BEACH CMAN 0900 60 100/ 12/ 14 1026.8R CAPERS NEARSHORE 0908 60 60 120/ 10/ 14 1026.4R FRIPP NEARSHORE 0908 61 61 110/ 12/ 16 1025.7R STATION/POSITION TIME TEMP WIND PRES WAVE SWELL AIR SEA DIR/SP/G HT/PER HT/PER/DIR (UTC) (F) (DEG/KT/KT) (MB) (FT/S) (FT/S/D) 5E ST. MARYS GA 0930 63 N/A 3/ 9 FRYING PAN BUOY 0950 60 69 70/ 8/ 12 1027.8R 3/ 8 2/110/ 8 BUOY 41025 0950 57 71 50/ 6/ 10 1029.3R 3/ 9 3/130/ 9 CAPE LOOKOUT NC 0900 56 60/ 6/ 7 1027.8R BUOY 41002 0950 64 71 50/ 12/ 16 1027.0R 4/ 8 3/ 90/ 8 BUOY 41010 NOT AVBL ST AUGUSTINE FL 1000 67 66 100/ 11/ 12 1024.7F $$

USA.gov is the U.S. government's official web portal to all federal, state and local government web resources and services.